| time (UTC) | temp F | wind direction | speed MPH | gust MPH | rain 1hr in | rain 24hr in | rain mn in | humidity % | barometer mb |
| 20260504201503 | 60 | 244 | 4.0 | 14.0 | 0.00 | 0.01 | 0.00 | 61 | 1004.3 |
| 20260504200003 | 61 | 251 | 5.0 | 18.0 | 0.00 | 0.01 | 0.00 | 60 | 1004.2 |
| 20260504194611 | 60 | 300 | 6.0 | 15.0 | 0.00 | 0.02 | 0.00 | 62 | 1004.1 |
| 20260504193058 | 59 | 213 | 6.0 | 17.0 | 0.00 | 0.02 | 0.00 | 63 | 1004.1 |
| 20260504191557 | 58 | 296 | 9.0 | 15.0 | 0.00 | 0.02 | 0.00 | 65 | 1004.1 |
| 20260504190125 | 58 | 244 | 5.0 | 13.0 | 0.00 | 0.02 | 0.00 | 65 | 1004.4 |
| 20260504184558 | 57 | 315 | 5.0 | 16.0 | 0.00 | 0.04 | 0.00 | 64 | 1004.4 |
| 20260504183052 | 56 | 202 | 6.0 | 12.0 | 0.00 | 0.04 | 0.00 | 66 | 1004.5 |
| 20260504181557 | 56 | 232 | 6.0 | 13.0 | 0.00 | 0.04 | 0.00 | 66 | 1004.7 |
| 20260504180142 | 55 | 219 | 3.0 | 9.0 | 0.00 | 0.04 | 0.00 | 67 | 1004.9 |
| 20260504174551 | 55 | 234 | 6.0 | 12.0 | 0.00 | 0.07 | 0.00 | 65 | 1005.0 |
| 20260504173059 | 55 | 278 | 4.0 | 11.0 | 0.00 | 0.07 | 0.00 | 65 | 1004.9 |
| 20260504171549 | 54 | 254 | 2.0 | 6.0 | 0.00 | 0.07 | 0.00 | 71 | 1004.9 |
| 20260504081542 | 35 | 254 | 1.0 | 4.0 | 0.00 | 0.40 | 0.00 | 82 | 1006.0 |
| 20260504050021 | 38 | 264 | 2.0 | 6.0 | 0.00 | 0.42 | 0.00 | 77 | 1005.1 |
| 20260504044518 | 37 | 298 | 2.0 | 5.0 | 0.00 | 0.42 | 0.00 | 80 | 1004.9 |
| 20260504043016 | 38 | 298 | 0.0 | 2.0 | 0.00 | 0.42 | 0.00 | 77 | 1004.9 |
| 20260504041512 | 40 | 254 | 1.0 | 4.0 | 0.00 | 0.42 | 0.00 | 73 | 1004.8 |
| 20260504040010 | 40 | 296 | 2.0 | 7.0 | 0.00 | 0.42 | 0.00 | 72 | 1004.6 |
| 20260504034508 | 40 | 286 | 4.0 | 8.0 | 0.00 | 0.42 | 0.42 | 71 | 1004.5 |
| 20260504033006 | 40 | 304 | 4.0 | 8.0 | 0.00 | 0.42 | 0.42 | 73 | 1004.4 |
| 20260504031505 | 40 | 288 | 4.0 | 8.0 | 0.00 | 0.42 | 0.42 | 73 | 1004.4 |
| 20260504030003 | 40 | 275 | 4.0 | 9.0 | 0.00 | 0.42 | 0.42 | 73 | 1004.3 |
| 20260504024502 | 41 | 250 | 4.0 | 7.0 | 0.00 | 0.42 | 0.42 | 73 | 1004.1 |
| 20260504023100 | 41 | 298 | 3.0 | 7.0 | 0.00 | 0.42 | 0.42 | 72 | 1004.1 |
| 20260504021611 | 42 | 297 | 4.0 | 9.0 | 0.00 | 0.42 | 0.42 | 71 | 1003.9 |
| 20260504020105 | 42 | 247 | 3.0 | 8.0 | 0.00 | 0.42 | 0.42 | 71 | 1003.8 |
| 20260504014556 | 43 | 293 | 5.0 | 10.0 | 0.00 | 0.42 | 0.42 | 69 | 1003.7 |
| 20260504013102 | 43 | 277 | 5.0 | 10.0 | 0.00 | 0.42 | 0.42 | 69 | 1003.6 |
| 20260504011557 | 44 | 271 | 5.0 | 11.0 | 0.00 | 0.42 | 0.42 | 67 | 1003.4 |
| 20260504010058 | 45 | 300 | 4.0 | 13.0 | 0.00 | 0.42 | 0.42 | 67 | 1003.2 |
| 20260504004555 | 45 | 301 | 5.0 | 12.0 | 0.00 | 0.42 | 0.42 | 67 | 1002.9 |
| 20260504003053 | 46 | 324 | 5.0 | 11.0 | 0.00 | 0.42 | 0.42 | 67 | 1002.7 |
| 20260504001607 | 46 | 317 | 6.0 | 11.0 | 0.00 | 0.42 | 0.42 | 77 | 1002.6 |
| 20260504000048 | 45 | 292 | 0.0 | 0.0 | 0.00 | 0.42 | 0.42 | 91 | 1002.4 |
| 20260503234548 | 46 | 292 | 1.0 | 4.0 | 0.00 | 0.42 | 0.42 | 89 | 1002.2 |
| 20260503233047 | 47 | 289 | 2.0 | 3.0 | 0.00 | 0.42 | 0.42 | 87 | 1002.1 |
| 20260503231552 | 48 | 9 | 1.0 | 3.0 | 0.00 | 0.42 | 0.42 | 84 | 1001.9 |
| 20260503230046 | 48 | 5 | 1.0 | 4.0 | 0.00 | 0.42 | 0.42 | 85 | 1001.8 |
| 20260503224550 | 47 | 302 | 1.0 | 6.0 | 0.00 | 0.42 | 0.42 | 83 | 1001.8 |
| 20260503223045 | 48 | 15 | 3.0 | 7.0 | 0.00 | 0.42 | 0.42 | 83 | 1001.7 |
| 20260503221545 | 48 | 309 | 2.0 | 4.0 | 0.00 | 0.42 | 0.42 | 85 | 1001.6 |
| 20260503220041 | 47 | 345 | 3.0 | 6.0 | 0.00 | 0.42 | 0.42 | 86 | 1001.6 |
| 20260503214547 | 47 | 348 | 2.0 | 10.0 | 0.00 | 0.42 | 0.42 | 88 | 1001.6 |
| 20260503213057 | 46 | 355 | 1.0 | 12.0 | 0.00 | 0.42 | 0.42 | 90 | 1001.7 |
| 20260503211553 | 46 | 11 | 2.0 | 7.0 | 0.00 | 0.42 | 0.42 | 91 | 1001.9 |
| 20260503210032 | 45 | 309 | 5.0 | 13.0 | 0.00 | 0.42 | 0.42 | 93 | 1001.9 |
| 20260503204549 | 44 | 320 | 5.0 | 15.0 | 0.01 | 0.42 | 0.42 | 94 | 1002.0 |
| 20260503203027 | 44 | 349 | 3.0 | 5.0 | 0.01 | 0.42 | 0.42 | 96 | 1002.1 |